This is the latest recevied weather packets stored in our database for station/object IZ5MMH-14. If no packets are shown the sender has not sent any weather packets the latest 10 day(s).
| Time | Temp. | Humidity | Pressure | Rain* | Wind** | Luminosity | Snow |
|---|---|---|---|---|---|---|---|
| 1777635609 | 21.67° C | 37% | 1023.3 hPa | - | - | - | - |
| 1777635009 | 22.22° C | 24% | 1023.3 hPa | - | - | - | - |
| 1777634409 | 22.22° C | 33% | 1023.4 hPa | - | - | - | - |
| 1777633809 | 22.78° C | 23% | 1023.5 hPa | - | - | - | - |
| 1777633209 | 21.67° C | 25% | 1023.7 hPa | - | - | - | - |
| 1777632609 | 21.67° C | 31% | 1023.7 hPa | - | - | - | - |
| 1777632009 | 21.67° C | 33% | 1023.8 hPa | - | - | - | - |
| 1777631408 | 21.11° C | 32% | 1023.8 hPa | - | - | - | - |
| 1777630809 | 21.11° C | 35% | 1024 hPa | - | - | - | - |
| 1777630209 | 20.56° C | 41% | 1024.2 hPa | - | - | - | - |
| 1777629608 | 20.56° C | 43% | 1024.2 hPa | - | - | - | - |
| 1777629009 | 20.56° C | 37% | 1024.3 hPa | - | - | - | - |
| 1777628412 | 21.11° C | 37% | 1024.4 hPa | - | - | - | - |
| 1777627208 | 20° C | 37% | 1024.3 hPa | - | - | - | - |
| 1777626609 | 20° C | 39% | 1024.4 hPa | - | - | - | - |
| 1777626009 | 20° C | 37% | 1024.4 hPa | - | - | - | - |
| 1777625408 | 19.44° C | 38% | 1024.6 hPa | - | - | - | - |
| 1777624809 | 20° C | 32% | 1024.5 hPa | - | - | - | - |
| 1777624209 | 19.44° C | 38% | 1024.5 hPa | - | - | - | - |
| 1777623609 | 18.89° C | 37% | 1024.5 hPa | - | - | - | - |
| 1777623008 | 18.33° C | 37% | 1024.5 hPa | - | - | - | - |
| 1777622408 | 18.33° C | 44% | 1024.6 hPa | - | - | - | - |
| 1777621808 | 17.78° C | 40% | 1024.5 hPa | - | - | - | - |
| 1777621208 | 17.78° C | 38% | 1024.5 hPa | - | - | - | - |
| 1777620609 | 17.78° C | 39% | 1024.4 hPa | - | - | - | - |
* Rain since midnight (hover to see other rain measurements)
** Current wind speed in m/s (hover to see current wind gust speed)